[Iaude] MPEC O66: 2024 OC [a=1.87,e=0.52,i=4.5,H=22.1]
    mpec at cfa.harvard.edu 
    mpec at cfa.harvard.edu
       
    Sat Jul 27 20:37:25 EDT 2024
    
    
  
M.P.E.C. 2024-O66                                 Issued 2024 July 28, 00:36 UT
     The Minor Planet Electronic Circulars contain information on unusual
         minor planets, routine data on comets and natural satellites,
         and occasional editorial announcements.  They are published
    on behalf of Division F of the International Astronomical Union by the
          Minor Planet Center, Smithsonian Astrophysical Observatory,
                          Cambridge, MA 02138, U.S.A.
			  
             Prepared using the Tamkin Foundation Computer Network
                              MPC at CFA.HARVARD.EDU
            URL https://www.minorplanetcenter.net/    ISSN 1523-6714
                                    2024 OC                                     
Observations:
     K24O00C* C2024 07 26.07083715 27 39.574-18 37 54.95         19.07cVEO066W68
     K24O00C  C2024 07 26.07452415 27 36.674-18 38 00.96         18.64cVEO066W68
     K24O00C  C2024 07 26.08054115 27 31.867-18 38 09.85         18.63cVEO066W68
     K24O00C  C2024 07 26.10468615 27 12.377-18 38 45.49         18.86cVEO066W68
     K24O00C KC2024 07 26.82780215 17 39.23 -18 59 35.1                XEO066595
     K24O00C KC2024 07 26.83815315 17 30.28 -18 59 50.7          19.2 GXEO066595
     K24O00C KC2024 07 26.85714 15 17 14.00 -19 00 16.8          18.5 GXEO066K83
     K24O00C KC2024 07 26.86222 15 17 09.56 -19 00 24.4          18.7 GXEO066K83
     K24O00C KC2024 07 26.86729 15 17 05.23 -19 00 31.0          17.7 GXEO066K83
     K24O00C KB2024 07 26.91177915 16 32.061-18 59 53.21         18.7 VZEO066Y05
     K24O00C KB2024 07 26.91722915 16 27.207-19 00 01.46         19.0 VZEO066Y05
     K24O00C KB2024 07 26.92267915 16 22.362-19 00 09.49         18.8 VZEO066Y05
     K24O00C  C2024 07 27.07958715 14 06.012-19 03 38.16         19.02cVEO066W68
     K24O00C  C2024 07 27.08281115 14 03.113-19 03 42.48         19.34cVEO066W68
     K24O00C  C2024 07 27.08837315 13 58.090-19 03 50.65         19.07cVEO066W68
     K24O00C  C2024 07 27.10983315 13 39.038-19 04 20.10         19.28cVEO066W68
     K24O00C KB2024 07 27.11584 15 13 36.636-19 06 48.28         18.6 RZEO066H36
     K24O00C KB2024 07 27.12191 15 13 31.174-19 06 56.48         18.6 RZEO066H36
     K24O00C KB2024 07 27.12780 15 13 25.901-19 07 05.27         18.8 RZEO066H36
     K24O00C KC2024 07 27.31119 15 10 49.23 -19 09 15.0          18.6 VqEO066E94
     K24O00C KC2024 07 27.31459 15 10 46.11 -19 09 20.0          18.6 VqEO066E94
     K24O00C KC2024 07 27.31774 15 10 43.20 -19 09 24.8          18.7 VqEO066E94
     K24O00C KB2024 07 27.47161015 08 25.165-19 15 38.26         18.5 VZEO066Q06
     K24O00C KB2024 07 27.47536115 08 21.705-19 15 43.26         18.3 VZEO066Q06
     K24O00C KB2024 07 27.47910715 08 18.162-19 15 49.40         19.2 VZEO066Q06
     K24O00C KB2024 07 27.79402 15 03 31.76 -19 23 43.7          19.4 VZEO066M45
     K24O00C KB2024 07 27.79660 15 03 29.32 -19 23 47.6          19.2 VZEO066M45
     K24O00C KB2024 07 27.79826 15 03 27.72 -19 23 49.5          18.8 VZEO066M45
     K24O00C |C2024 07 27.98087015 00 39.910-19 25 54.40         18.4 GVEO066807
     K24O00C |C2024 07 27.98307015 00 37.700-19 25 57.60         19.0 GVEO066807
     K24O00C |C2024 07 27.98527015 00 35.510-19 26 00.60         18.5 GVEO066807
     K24O00C |C2024 07 27.98748015 00 33.310-19 26 03.60         18.7 GVEO066807
Observer details:
595 Farra d'Isonzo.  Observer E. Pettarin.  0.61-m f/4.5 reflector + CCD.
807 Cerro Tololo Observatory, La Serena.  Observers T. Linder, R. Holmes.
    0.61-m f/6.8 Ritchey-Chretien + CCD.
E94 Possum Observatory, Gisborne.  Observer J. Drummond.  0.41-m f/4.5
    reflector + CCD.
H36 Sandlot Observatory, Scranton.  Observer G. Hug.  0.56-m f/4.25 reflector
    + CMO.
K83 Beppe Forti Astronomical Observatory, Montelupo.  Observers M. Tombelli,
    M. Iozzi, E. Venticinque, T. Bitossi, A. Mazzanti, G. Interrante, G.
    Ferrini, L. Grazzini, F. Cheli, A. Squilloni.  Measurers M. Tombelli, F.
    Bernardi, F. Cheli, A. Squilloni.  0.40-m f/8 Ritchey-Chretien + CMOS.
M45 Starhopper Observatory, Sfantu Gheorghe.  Observer F. Ursache.  0.41-m
    f/7.5 reflector + CMO.
Q06 Tarui Observatory, Tarui.  Observer H. Watanabe.  0.35-m f/1.9 Schmidt-
    Cassegrain + CMO.
W68 ATLAS Chile, Rio Hurtado.  Observers L. Denneau, R. Siverd, J. Tonry, H.
    Weiland.  Measurers L. Denneau, N. Erasmus, A. Fitzsimmons, J. Robinson,
    R. Siverd, J. Tonry, H. Weiland.  0.5-m Reflector + CCD.
Y05 SONEAR Wykrota-CEAMIG, Serra da Piedade.  Observers C. Jacques, A.
    Caetano, E. Pimentel.  Measurer C. Jacques.  0.45-m f/2.9 reflector + CMO.
Orbital elements:
2024 OC                                                  Earth MOID = 0.0069 AU
Epoch 2024 Oct. 17.0 TT = JDT 2460600.5                 Veres                   
M  15.76181              (2000.0)            P               Q                  
n   0.38600283     Peri.  234.06958     +0.99187293     +0.10783423             
a   1.8681384      Node   119.65107     -0.07643467     +0.92930914             
e   0.5206184      Incl.    4.45646     -0.10171446     +0.35320858             
P   2.55           H   22.14          G   0.15           U   8                  
Residuals in seconds of arc
240726 W68  0.7-  0.9+    240726 Y05  0.2+  0.0     240727 Q06  0.5-  0.2+
240726 W68  0.1+  0.2+    240727 W68  0.3+  0.1+    240727 Q06  0.2+  0.5+
240726 W68  0.2+  0.1-    240727 W68  0.1+  0.2+    240727 Q06  0.3-  0.5-
240726 W68 (2.2-  1.4-)   240727 W68  0.7-  0.3-    240727 M45  0.9-  0.6+
240726 595  0.1+  0.7+    240727 W68  0.5+  0.6-    240727 M45  0.3-  0.2+
240726 595  0.1-  0.1+    240727 H36  0.1-  0.0     240727 M45  0.3-  0.6+
240726 K83  0.3+  0.4-    240727 H36  0.3-  0.5+    240727 807  0.2+  0.1-
240726 K83  0.4-  0.8-    240727 H36  0.1-  0.1+    240727 807  0.0   0.2-
240726 K83  0.3+  0.2-    240727 E94  0.2+  0.1+    240727 807  0.1+  0.1-
240726 Y05  0.1+  0.2-    240727 E94  0.3+  0.1+    240727 807  0.1+  0.0
240726 Y05  0.1+  0.2-    240727 E94  0.2+  0.1-
Ephemeris:
2024 OC                  a,e,i = 1.87, 0.52, 4                   q = 0.8956
Date    TT    R. A. (2000) Decl.     Delta      r    Elong.  Phase     V
2024 06 28    17 42 41.6 -13 08 20   0.2315  1.2418   165.2    12.1    20.2
...
2024 07 13    17 01 01.8 -14 32 52   0.1387  1.1317   144.0    31.9    19.5
...
2024 07 21    16 17 12.4 -16 37 49   0.09689 1.0769   126.8    49.0    19.1
...
2024 07 27    15 15 18.6 -19 02 07   0.06993 1.0386   107.4    68.9    18.9
2024 07 28    15 00 22.9 -19 26 45   0.06607 1.0325   103.1    73.3    18.9
2024 07 29    14 43 38.5 -19 49 04   0.06248 1.0264    98.5    78.0    18.9
...
2024 08 04    12 22 20.7 -19 01 10   0.04975 0.9923    62.1   115.3    20.1
...
2024 08 12    09 21 26.1 -07 52 01   0.06557 0.9533    22.9   155.6    25.8
...
2024 08 27    07 41 36.4 +03 05 10   0.1450  0.9054    40.7   133.3    23.8
M. P. C. Staff               (C) Copyright 2024 MPC           M.P.E.C. 2024-O66
    
    
More information about the Iaude
mailing list